The Dalles, WA

10:41 AM PDT on September 23, 2019 (GMT -0700)
Columbia Gorge Regional-The Dalles

Weather History for KDLS - August, 2019

Change the Weather History Date:

Wednesday, August 21, 2019

  Actual Average Record
Temperature  
Mean Temperature 72 °F -  
Max Temperature 80 °F 85 °F 103 °F (1951)
Min Temperature 64 °F 56 °F 47 °F (1960)
Cooling Degree Days 7    
Growing Degree Days 22 (Base 50)    
Moisture  
Dew Point 55 °F    
Average Humidity 60    
Maximum Humidity 81    
Minimum Humidity 39    
Precipitation  
Precipitation 0.04 in - - ()
Sea Level Pressure  
Sea Level Pressure 29.94 in    
Wind  
Wind Speed 11 mph ()    
Max Wind Speed 22 mph    
Max Gust Speed 34 mph    
Visibility 9.9 miles    
Events Rain    
Averages and records for this station are not official NWS values.
T = Trace of Precipitation, MM = Missing Value Source: Averaged Metar Reports

Daily Weather History Graph

Daily Weather History Graph

Search for Another Location

Airport or City:

Astronomy

Aug. 21, 2019 Rise Set
Actual Time 6:12 AM PDT 8:02 PM PDT
Civil Twilight 5:40 AM PDT 8:34 PM PDT
Nautical Twilight 5:01 AM PDT 9:12 PM PDT
Astronomical Twilight 4:19 AM PDT 9:54 PM PDT
Moon 11:04 PM PDT (8/21) 12:10 PM PDT (8/21)
Length of Visible Light 14h 53m
Length of Day
13h 50m
Waning Gibbous, 68% of the Moon is Illuminated
Aug 21
Waning Gibbous
Aug 23
Last Quarter
Aug 30
New
Sep 5
First Quarter
Sep 13
Full

Hourly Weather History & Observations

Time (PDT) Temp. Heat Index Dew Point Humidity Pressure Visibility Wind Dir Wind Speed Gust Speed Precip Events Conditions
12:53 AM 72.0 °F - 52.0 °F 49% 29.95 in 10.0 mi West 16.1 mph - N/A   Clear
1:53 AM 72.0 °F - 52.0 °F 49% 29.94 in 10.0 mi WNW 17.3 mph 34.5 mph N/A   Clear
2:53 AM 69.1 °F - 52.0 °F 54% 29.95 in 10.0 mi SW 13.8 mph 20.7 mph N/A   Clear
3:53 AM 68.0 °F - 52.0 °F 56% 29.95 in 10.0 mi WSW 11.5 mph - N/A   Clear
4:53 AM 66.9 °F - 52.0 °F 59% 29.95 in 10.0 mi SW 12.7 mph - N/A   Clear
5:53 AM 66.0 °F - 52.0 °F 60% 29.96 in 10.0 mi WSW 10.4 mph - N/A   Clear
6:53 AM 64.9 °F - 52.0 °F 63% 29.97 in 10.0 mi Calm Calm - N/A   Clear
7:53 AM 68.0 °F - 53.1 °F 59% 29.97 in 10.0 mi West 3.5 mph - N/A   Clear
8:53 AM 72.0 °F - 53.1 °F 51% 29.96 in 10.0 mi NW 9.2 mph - N/A   Clear
9:53 AM 77.0 °F - 50.0 °F 39% 29.95 in 10.0 mi West 15.0 mph - N/A   Mostly Cloudy
10:53 AM 75.0 °F - 50.0 °F 41% 29.95 in 10.0 mi West 12.7 mph - N/A   Mostly Cloudy
11:53 AM 77.0 °F - 52.0 °F 42% 29.94 in 10.0 mi NW 8.1 mph - N/A   Clear
12:53 PM 80.1 °F 80.0 °F 54.0 °F 40% 29.92 in 10.0 mi WNW 15.0 mph 20.7 mph N/A   Clear
1:53 PM 75.9 °F - 55.9 °F 50% 29.92 in 10.0 mi WNW 20.7 mph 25.3 mph N/A   Scattered Clouds
2:53 PM 72.0 °F - 55.9 °F 57% 29.91 in 10.0 mi WNW 21.9 mph 29.9 mph N/A   Mostly Cloudy
3:53 PM 66.9 °F - 60.1 °F 79% 29.94 in 8.0 mi WNW 12.7 mph - 0.02 in Rain Light Rain
5:53 PM 71.1 °F - 61.0 °F 70% 29.93 in 10.0 mi NNW 6.9 mph - N/A   Mostly Cloudy
6:53 PM 70.0 °F - 61.0 °F 73% 29.93 in 10.0 mi NW 6.9 mph - 0.00 in   Overcast
7:53 PM 69.1 °F - 59.0 °F 70% 29.94 in 10.0 mi WNW 11.5 mph - N/A   Overcast
8:53 PM 66.0 °F - 60.1 °F 81% 29.95 in 10.0 mi WNW 11.5 mph - 0.02 in Rain Light Rain
9:53 PM 66.0 °F - 60.1 °F 81% 29.94 in 10.0 mi WNW 15.0 mph - 0.00 in   Overcast
10:53 PM 64.9 °F - 59.0 °F 81% 29.94 in 10.0 mi WNW 8.1 mph - N/A   Clear
11:53 PM 64.9 °F - 59.0 °F 81% 29.93 in 10.0 mi WSW 4.6 mph - N/A   Clear